Location: Newark
(36.1358°N, 115.1208°W)
Time: 22:26:18
(UTC+00:00)

Vanguard 1 Rocket - Pass Details

Date: 27 February 2020
Orbit: 650 x 4226 km, 34.3° (Epoch: 05 April)

Event Time Altitude Azimuth Distance (km) Brightness Sun altitude
Rises 11:25:30 0° 272° (W) 4,647 - -34.5°
Reaches altitude 10° 11:29:16 10° 271° (W) 3,187 - -33.8°
Maximum altitude 11:36:16 72° 188° (S) 866 - -32.4°
Exits shadow 11:38:06 39° 115° (ESE) 1,120 8.1 -32.1°
Drops below altitude 10° 11:40:50 10° 104° (ESE) 2,113 10.0 -31.5°
Sets 11:42:53 0° 102° (ESE) 2,963 11.0 -31.1°
